www.pogodaiklimat.ru

Погода и климат >> Архив погоды >> Украина >> Первомайск


ПОГОДА в Первомайске

  • Прогноз погоды в Первомайске
  • Монитор погоды в Первомайске

АРХИВ ПОГОДЫ в Первомайске

Время (UTC), дата Ветер
(напр.,м/с)
 
Видим.   Явления Облачность Т
(С)
Тd
(С)
f
(%)
Тe
(С)
Тes
(С)
Комфортность P
(гПа)
Po
(гПа)
Тmin
(С)
Tmax
(С)
R
(мм)
R24
(мм)
S
(см)
09 11.07 З 4 10 км 8/8 600 м
[Cb calv]
+20.5 +9.4 49 +22 +24 комфорт 1007.3 995.3
12 11.07 З 3 10 км 8/6 600 м
[Cb calv Ac cast]
+21.3 +8.9 45 +23 +26 комфорт 1006.7 994.8
15 11.07 СЗ 4 10 км в посл. час ливневой дождь 8/5 600 м
[Cb calv Ac cast]
+20.5 +9.4 49 +22 +23 комфорт 1007.1 995.1
18 11.07 З 1 10 км {ливн. осадки} 8/0
[Ac cast]
+18.2 +10.6 61 +20 +20 1007.9 995.8 +22.8 0.1
21 11.07 штиль 0 10 км ясно +13.6 +11.1 85 +13 +13 1008.8 996.5
00 12.07 З 1 10 км ясно +11.8 +10.4 91 +12 +12 1008.8 996.5
03 12.07 штиль 0 10 км 9/0
[Ci fib]
+10.9 +9.3 90 +10 +11 1009.0 996.6
06 12.07 СЗ 2 10 км 8/0
[Cc]
+16.9 +11.8 72 +17 +24 1009.6 997.4 +10.1
09 12.07 С 1 10 км 8/8 600 м
[Cb calv Ci fib]
+21.3 +11.0 52 +23 +27 комфорт 1009.0 997.0
12 12.07 ЮЗ 2 10 км 8/8 600 м
[Cb calv Ac trans]
+24.5 +10.3 41 +26 +28 жарко 996.1
15 12.07 СВ 1 10 км в посл. час гроза {ливн. осадки} 8/5 600 м
[Cb cap Ci fib]
+21.0 +15.1 69 +25 +27 комфорт 1008.4 996.4
18 12.07 СЗ 1 10 км {гроза, ливн. осадки} 4/3 600 м
[Sc Ac cast]
+18.4 +12.3 68 +20 +20 1009.5 997.4 +25.2 2
21 12.07 СЗ 1 10 км 3/0
[Ac trans]
+14.1 +12.1 88 +14 +14 1010.1 997.8
00 13.07 штиль 0 4000 м дымка 6/0
[Ac trans]
+12.0 +10.9 93 +11 +11 1010.1 997.8
03 13.07 штиль 0 4000 м дымка 3/0
[Ac lent]
+11.0 +10.4 96 +10 +11 1010.1 997.7
06 13.07 СЗ 2 10 км ясно +18.1 +12.5 70 +19 +27 1010.1 998.0 +10.3
09 13.07 СЗ 2 10 км 5/5 600 м
[Cb calv]
+25.0 +10.3 40 +26 +35 жарко 1009.6 997.8
12 13.07 ЮЗ 2 10 км 8/6 600 м
[Cb calv Ac trans]
+25.0 +10.0 39 +26 +30 жарко 1008.7 996.9
15 13.07 СЗ 1 10 км 9/8 600 м
[Cb calv Ac trans]
+23.5 +10.3 43 +25 +25 комфорт 1008.7 996.8
18 13.07 СВ 1 10 км 6/4 600 м
[Cb calv Ac trans]
+20.6 +12.6 60 +24 +24 комфорт 1009.4 997.4 +26.0
21 13.07 СВ 1 10 км {ливн. осадки} 10/10 600 м
[Sc]
+18.1 +13.3 74 +19 +19 1009.5 997.4
00 14.07 штиль 0 10 км {ливн. осадки} 3/1 600 м
[Sc Ac trans]
+15.7 +12.4 81 +16 +16 1009.3 997.1
03 14.07 штиль 0 10 км 8/0
[Ac cast Ci fib]
+14.0 +11.5 85 +14 +14 1009.2 996.9
06 14.07 ЮВ 2 10 км 6/0
[Ac trans Ci fib]
+20.0 +12.0 60 +22 +28 комфорт 1009.0 997.0 +13.1
09 14.07 Ю 2 10 км 8/6 600 м
[Cb calv Ci fib]
+25.4 +10.9 40 +26 +33 жарко 1008.3 996.5
12 14.07 СВ 2 10 км 8/8 600 м
[Cb calv Ac trans Ci fib]
+26.2 +10.7 38 +27 +30 жарко 1006.9 995.2
15 14.07 С 1 10 км слаб. ливневой дождь {гроза} 10/10 600 м
[Cb cap]
+17.1 +14.1 83 +18 +18 1008.8 996.6
18 14.07 СЗ 2 10 км {гроза, ливн. осадки} 9/0 600 м
[Ac trans]
+16.9 +15.3 90 +17 +17 1009.2 997.0 +26.4 8
21 14.07 штиль 0 10 км 4/0
[Ac trans]
+15.9 +14.5 91 +16 +16 1009.2 997.0
00 15.07 С 1 4000 м дымка ясно +13.1 +12.5 96 +13 +13 1008.2 995.9
03 15.07 штиль 0 4000 м дымка 3/0
[Ac trans]
+12.3 +11.5 95 +12 +12 1008.3 995.9
06 15.07 С 1 10 км 6/0
[Ac trans Ci fib]
+19.0 +14.9 77 +21 +28 комфорт 1008.3 996.2 +11.6
12 15.07 СЗ 1 10 км 8/3 600 м
[Cu med, cong As trans Ci fib]
+25.9 +13.5 46 +28 +36 жарко 1007.2 995.5
18 15.07 ЮВ 2 10 км зарница {гроза, ливн. осадки} 10/10 600 м
[Cb cap]
+17.0 +14.4 85 +17 +17 1009.9 997.7 +27.0 8
00 16.07 З 1 4000 м дымка {гроза, ливн. осадки} 8/0
[Ac trans Ci fib]
+15.4 +14.7 96 +16 +16 1009.0 996.8
06 16.07 С 2 10 км 3/3 600 м
[Cu hum]
+18.6 +15.1 80 +20 +25 1009.4 997.3 +13.0 2
12 16.07 СЗ 3 10 км 6/6 600 м
[Cu med, cong]
+25.2 +11.7 43 +27 +31 жарко 1008.1 996.3
18 16.07 С 1 10 км 3/0
[Ac lent Ci fib]
+21.4 +12.8 58 +24 +24 комфорт 1008.4 996.4 +26.2
00 17.07 штиль 0 4000 м дымка ясно +13.7 +12.4 92 +13 +13 1009.3 997.0
06 17.07 СЗ 2 10 км ясно +19.9 +12.8 64 +22 +30 комфорт 1008.7 996.7 +12.3
12 17.07 СЗ 2 10 км 9/8 600 м
[Cb calv Ac lent]
+25.0 +10.5 40 +26 +28 жарко 1007.4 995.6
18 17.07 З 2 10 км 4/3 600 м
[Sc diur, vesp Ac trans]
+22.5 +11.0 48 +25 +25 комфорт 1007.7 995.8 +27.0
06 18.07 СЗ 2 10 км ясно +17.3 +11.4 68 +18 +25 1011.1 998.9 +11.1

 

Местоположение метеостанции Первомайск (Николаевская область, Украина): широта 48.05 долгота 30.85 высота над уровнем моря 103 м.

В архиве по умолчанию представлена погода в Первомайске за последнюю неделю. Архивные данные за месяц целиком и за предыдущие месяцы, начиная с января 2011 года, Вы можете получить, выбрав интересующий диапазон дат из раскрывающегося списка и нажав кнопку "Ввод!".


*Определитесь, кто Вы:
робот инопланетянин человек

Внимание! Время в таблицах - всемирное. Для получения местного времени необходимо прибавить поправку, которая равна 2 ч.

Смотрите также архив погоды в соседних городах и на ближайших метеорологических станциях:

Погода в Помошной (Кировоградская область, Украина) (45 км)
Погода в Любашевке (Одесская область, Украина) (49 км)
Погода в Вознесенске (Николаевская область, Украина) (64 км)
Погода в Гайвороне (Кировоградская область, Украина) (80 км)
Погода в Умани (Черкасская область, Украина) (92 км)
Погода в Бобринце (Кировоградская область, Украина) (97 км)
Погода в Новомиргороде (Кировоградская область, Украина) (100 км)
Погода в Затишье (Одесская область, Украина) (108 км)
Погода в Кропивницком (Кировоградская область, Украина) (113 км)
Погода в Звенигородке (Черкасская область, Украина) (115 км)

Пояснения к столбцам:

Ветер - указаны скорость ветра в м/с - средняя за 10 мин, порывы в срок и между сроками (в фигурных скобках) и направление, откуда дует ветер: С - северный, СВ - северо-восточный, В - восточный, ЮВ - юго-восточный, Ю - южный, ЮЗ - юго-западный, З - западный, СЗ - северо-западный.
Видимость - горизонтальная дальность видимости в метрах или километрах. При видимости от 1 до 10 км при отсутствии осадков обычно наблюдается дымка, при ухудшении видимости до 1 км и менее - туман. В сухую погоду видимость может ухудшаться дымом, пылью или мглою.
Явления - указаны атмосферные явления, наблюдавшиеся в срок или в последний час перед сроком; фигурными скобками обозначены явления, наблюдавшиеся между сроками (за 1-3 часа до срока); квадратными скобками обозначены град или гололедные отложения с указанием их диаметра в мм.
Облачность - указаны через наклонную черту общая и нижняя облачность в баллах и высота нижней границы облаков в метрах; квадратными скобками обозначены формы облаков: Ci - перистые, Cs - перисто-слоистые, Cc - перисто-кучевые, Ac - высококучевые, As - высокослоистые, Sc - слоисто-кучевые, Ns - слоисто-дождевые, Cu - кучевые, Cb - кучево-дождевые. Подробнее классификацию облаков см. в Атласе облаков (PDF).
T - Температура воздуха - температура, измеренная на высоте 2 м над землей.
Td - Температура точки росы - температура, при понижении до которой содержащийся в воздухе водяной пар достигнет насыщения.
f - Относительная влажность воздуха - влажноcть воздуха, измеренная на высоте 2 м над землей.
Te - Эффективная температура - температура, которую ощущает одетый по сезону человек в тени. Характеристика душности погоды. При расчете учитывается влияние влажности воздуха и скорости ветра на теплоощущения человека.
Tes - Эффективная температура на солнце - температура, которую ощущает человек, с поправкой на солнечный нагрев. Характеристика знойности погоды. Зависит от высоты солнца над горизонтом, облачности и скорости ветра. Ночью, в пасмурную погоду, а также при ветре 12 м/с и более поправка равна нулю.
P - Атмосферное давление - приведенное к уровню моря атмосферное давление.
Po - Атмосферное давление - измеренное на уровне метеостанции атмосферное давление.
Tmin - Минимальная температура - минимум температуры воздуха на высоте 2 м над землей.
Tmax - Максимальная температура - максимум температуры воздуха на высоте 2 м над землей.
R - Количество осадков - Количество выпавших осадков за период времени, мм. При наведении курсора мыши на число - период времени, за который выпало указанное количество осадков.
R24 - Количество осадков - Количество выпавших осадков за 24 часа, мм.
S - Снежный покров - Высота снежного покрова, см. При наведении курсора мыши на число - состояние снежного покрова и степень покрытия местности в баллах.